Flag for USA

Past Weather in Culpeper, Virginia, USA — Yesterday and Last 2 Weeks

Now
69 °F

Scattered clouds.


Feels Like: 69 °F
Forecast: 87 / 65 °F
Wind: No wind

Location: Culpeper County Airport

Current Time: Jul 13, 2020 at 8:23:36 am

Latest Report: Jul 13, 2020 at 7:55 am


Visibility: 10 mi

Pressure: 29.88 "Hg

Humidity: 91%

Dew Point: 67 °F

Location of CulpeperLocation

Past Weather in Culpeper — Graph

°F

Culpeper Temperature Yesterday

Maximum temperature yesterday: 92 °F (at 2:55 pm)
Minimum temperature yesterday: 61 °F (at 5:55 am)
Average temperature yesterday: 75 °F

High & Low Weather Summary for the Past Weeks

 TemperatureHumidityPressure
High94 °F (Jul 6, 2:55 pm)96% (Jun 29, 11:15 pm)30.09 "Hg (Jun 29, 11:15 pm)
Low61 °F (Jul 12, 5:55 am)33% (Jul 11, 2:55 pm)29.73 "Hg (Jul 11, 4:15 am)
Average79 °F72%29.91 "Hg
* Reported Jun 28 7:15 am — Jul 13 7:15 am, Culpeper. Weather by CustomWeather, © 2020

Note: Actual official high and low records may vary slightly from our data, if they occured in-between our weather recording intervals... More about our weather records

Culpeper Weather History for the Previous 24 Hours

Scroll right to see more
 ConditionsComfort  
Time TempWeatherWind HumidityBarometerVisibility
7:15 am
Mon, Jul 13
67 °FScattered clouds.No wind95%29.87 "Hg10 mi
6:55 am67 °FCloudy.No wind95%29.86 "Hg10 mi
6:35 am66 °FCloudy.No wind95%29.86 "Hg10 mi
6:15 am66 °FOvercast.No wind95%29.87 "Hg10 mi
5:55 am65 °FPassing clouds.No wind95%29.86 "Hg10 mi
5:35 am64 °FPassing clouds.No wind95%29.85 "Hg10 mi
5:15 am63 °FClear.No wind95%29.84 "Hg7 mi
4:55 am63 °FFog.No wind95%29.84 "Hg4 mi
4:35 am63 °FFog.No wind95%29.83 "Hg4 mi
4:15 am63 °FFog.No wind95%29.83 "Hg5 mi
3:55 am63 °FFog.No wind95%29.82 "Hg5 mi
3:35 am64 °FClear.No wind95%29.82 "Hg7 mi
3:15 am64 °FFog.No wind95%29.82 "Hg5 mi
2:55 am64 °FClear.No wind95%29.82 "Hg10 mi
2:35 am65 °FClear.No wind96%29.83 "Hg7 mi
2:15 am65 °FClear.No wind95%29.83 "Hg10 mi
1:55 am66 °FClear.No wind95%29.83 "Hg10 mi
1:35 am67 °FClear.No wind96%29.83 "Hg10 mi
1:15 am67 °FClear.No wind96%29.84 "Hg10 mi
12:55 am70 °FClear.No wind90%29.84 "Hg10 mi
12:35 am69 °FClear.3 mph93%29.83 "Hg10 mi
12:15 am71 °FClear.No wind85%29.83 "Hg10 mi
11:55 pm
Sun, Jul 12
71 °FClear.3 mph84%29.83 "Hg10 mi
11:35 pm68 °FClear.No wind95%29.83 "Hg10 mi
11:15 pm69 °FClear.No wind95%29.83 "Hg10 mi
10:55 pm71 °FPassing clouds.No wind92%29.83 "Hg10 mi
10:15 pm71 °FMostly cloudy.No wind92%29.82 "Hg10 mi
9:55 pm71 °FOvercast.No wind91%29.82 "Hg10 mi
9:35 pm71 °FMostly cloudy.No wind93%29.81 "Hg10 mi
9:15 pm71 °FPartly cloudy.3 mph87%29.81 "Hg10 mi
8:55 pm72 °FLight rain. Mostly cloudy.3 mph79%29.79 "Hg10 mi
7:55 pm76 °FThundershowers. Scattered clouds.5 mph81%29.78 "Hg10 mi
7:35 pm76 °FPartly sunny.3 mph79%29.77 "Hg10 mi
7:15 pm76 °FPartly sunny.7 mph80%29.78 "Hg10 mi
6:55 pm76 °FMore clouds than sun.3 mph77%29.76 "Hg10 mi
6:15 pm76 °FLight rain. Cloudy.7 mph75%29.77 "Hg7 mi
5:55 pm82 °FLight rain. Mostly cloudy.13 mph55%29.76 "Hg10 mi
5:15 pm87 °FPartly sunny.7 mph40%29.74 "Hg10 mi
4:55 pm89 °FScattered clouds.8 mph37%29.74 "Hg10 mi
4:15 pm91 °FPartly sunny.10 mph37%29.73 "Hg10 mi
3:55 pm91 °FBroken clouds.10 mph34%29.74 "Hg10 mi
3:35 pm90 °FBroken clouds.8 mph36%29.74 "Hg10 mi
3:15 pm91 °FBroken clouds.9 mph34%29.75 "Hg10 mi
2:55 pm92 °FScattered clouds.6 mph35%29.76 "Hg10 mi
2:15 pm89 °FSunny.8 mph36%29.77 "Hg10 mi
1:55 pm90 °FScattered clouds.5 mph34%29.77 "Hg10 mi
1:15 pm91 °FBroken clouds.5 mph37%29.78 "Hg10 mi
12:55 pm90 °FBroken clouds.6 mph38%29.79 "Hg10 mi
12:35 pm90 °FScattered clouds.No wind38%29.79 "Hg10 mi
12:15 pm89 °FBroken clouds.3 mph40%29.79 "Hg10 mi
11:55 am89 °FScattered clouds.5 mph42%29.80 "Hg10 mi
11:35 am88 °FSunny.5 mph43%29.81 "Hg10 mi
11:15 am87 °FSunny.3 mph42%29.82 "Hg10 mi
10:55 am87 °FScattered clouds.No wind43%29.82 "Hg10 mi
10:35 am85 °FPartly sunny.3 mph48%29.82 "Hg10 mi
10:15 am84 °FScattered clouds.No wind49%29.83 "Hg10 mi
9:55 am83 °FScattered clouds.No wind54%29.83 "Hg10 mi
9:15 am79 °FSunny.No wind59%29.83 "Hg10 mi
8:55 am78 °FSunny.No wind59%29.84 "Hg10 mi
Weather by CustomWeather, © 2020

See weather overview